Location: Byszew
(52.1813°N, 19.2693°E)
Time: 01:55:15
(UTC+00:00)

OBJECT-B - Pass Details

Date: 03 March 2021
Orbit: 414 x 427 km, 97.0° (Epoch: 09 April)

Event Time Altitude Azimuth Distance (km) Brightness Sun altitude
Exits shadow 19:37:55 14° 270° (W) 1,272 3.8 -29.2°
Drops below altitude 10° 19:39:46 10° 305° (NW) 1,515 4.5 -29.4°
Sets 19:42:30 0° 331° (NNW) 2,383 5.4 -29.8°
